Time,TemperatureF,DewpointF,PressureIn,WindDirection,WindDirectionDegrees,WindSpeedMPH,WindSpeedGustMPH,Humidity,HourlyPrecipIn,Conditions,Clouds,dailyrainin,SoftwareType,DateUTC
2013-02-10 00:00:00,36.9,34.2,30.21,SSE,154,0.0,3.0,90,0.00,,,0.00,Wunderground v.1.15,2013-02-10 05:00:00,
2013-02-10 00:01:00,36.9,34.2,30.21,SSE,154,0.0,3.0,90,0.00,,,0.00,Wunderground v.1.15,2013-02-10 05:01:00,
2013-02-10 00:02:00,36.9,34.2,30.21,SSE,154,0.0,3.0,90,0.00,,,0.00,Wunderground v.1.15,2013-02-10 05:02:00,
2013-02-10 00:03:00,36.9,34.2,30.21,SSE,154,0.0,3.0,90,0.00,,,0.00,Wunderground v.1.15,2013-02-10 05:03:00,
2013-02-10 00:08:00,36.8,34.1,30.21,SSE,154,0.0,3.0,90,0.00,,,0.00,Wunderground v.1.15,2013-02-10 05:08:00,
2013-02-10 00:13:00,36.8,34.1,30.21,SSE,154,0.0,3.0,90,0.00,,,0.00,Wunderground v.1.15,2013-02-10 05:13:00,
2013-02-10 00:19:00,36.5,33.8,30.21,SSE,154,0.0,3.0,90,0.00,,,0.00,Wunderground v.1.15,2013-02-10 05:19:00,
2013-02-10 00:25:00,36.5,34.1,30.21,SSE,154,0.0,3.0,91,0.00,,,0.00,Wunderground v.1.15,2013-02-10 05:25:00,
2013-02-10 00:31:00,36.3,33.9,30.20,SSE,154,0.0,3.0,91,0.00,,,0.00,Wunderground v.1.15,2013-02-10 05:31:00,
2013-02-10 00:37:00,36.2,33.8,30.20,SSE,154,0.0,3.0,91,0.00,,,0.00,Wunderground v.1.15,2013-02-10 05:37:00,
2013-02-10 00:43:00,36.0,33.6,30.20,SSE,154,0.0,3.0,91,0.00,,,0.00,Wunderground v.1.15,2013-02-10 05:43:00,
2013-02-10 00:49:00,36.0,33.6,30.20,SSE,154,0.0,3.0,91,0.00,,,0.00,Wunderground v.1.15,2013-02-10 05:49:00,
2013-02-10 00:55:00,35.9,33.5,30.20,SSE,154,0.0,3.0,91,0.00,,,0.00,Wunderground v.1.15,2013-02-10 05:55:00,
2013-02-10 01:01:00,35.8,33.4,30.20,SSE,154,0.0,3.0,91,0.00,,,0.00,Wunderground v.1.15,2013-02-10 06:01:00,
2013-02-10 01:06:00,35.6,33.2,30.20,SSE,154,0.0,3.0,91,0.00,,,0.00,Wunderground v.1.15,2013-02-10 06:06:00,
2013-02-10 01:11:00,35.5,33.1,30.20,SSE,154,0.0,3.0,91,0.00,,,0.00,Wunderground v.1.15,2013-02-10 06:11:00,
2013-02-10 01:17:00,35.3,32.9,30.20,SSE,154,0.0,3.0,91,0.00,,,0.00,Wunderground v.1.15,2013-02-10 06:17:00,
2013-02-10 01:23:00,35.3,33.2,30.20,SSE,154,0.0,3.0,92,0.00,,,0.00,Wunderground v.1.15,2013-02-10 06:23:00,
2013-02-10 01:29:00,35.2,33.1,30.20,SSE,154,0.0,3.0,92,0.00,,,0.00,Wunderground v.1.15,2013-02-10 06:29:00,
2013-02-10 01:34:00,35.0,32.9,30.20,SSE,154,0.0,3.0,92,0.00,,,0.00,Wunderground v.1.15,2013-02-10 06:34:00,
2013-02-10 01:39:00,35.0,32.9,30.20,SSE,154,0.0,3.0,92,0.00,,,0.00,Wunderground v.1.15,2013-02-10 06:39:00,
2013-02-10 01:45:00,34.9,32.8,30.20,SSE,154,0.0,3.0,92,0.00,,,0.00,Wunderground v.1.15,2013-02-10 06:45:00,
2013-02-10 01:50:00,34.7,32.6,30.20,SSE,154,0.0,3.0,92,0.00,,,0.00,Wunderground v.1.15,2013-02-10 06:50:00,
2013-02-10 01:55:00,34.7,32.6,30.20,SSE,154,0.0,3.0,92,0.00,,,0.00,Wunderground v.1.15,2013-02-10 06:55:00,
2013-02-10 02:01:00,34.6,32.5,30.20,SSE,154,0.0,3.0,92,0.00,,,0.00,Wunderground v.1.15,2013-02-10 07:01:00,
2013-02-10 02:06:00,34.6,32.5,30.20,SSE,154,0.0,3.0,92,0.00,,,0.00,Wunderground v.1.15,2013-02-10 07:06:00,
2013-02-10 02:11:00,34.6,32.5,30.20,SSE,154,0.0,3.0,92,0.00,,,0.00,Wunderground v.1.15,2013-02-10 07:11:00,
2013-02-10 02:17:00,34.4,32.3,30.20,SSE,154,0.0,3.0,92,0.00,,,0.00,Wunderground v.1.15,2013-02-10 07:17:00,
2013-02-10 02:22:00,34.3,32.2,30.20,SSE,154,0.0,3.0,92,0.00,,,0.00,Wunderground v.1.15,2013-02-10 07:22:00,
2013-02-10 02:27:00,34.3,32.2,30.20,SSE,154,0.0,3.0,92,0.00,,,0.00,Wunderground v.1.15,2013-02-10 07:27:00,
2013-02-10 02:33:00,34.1,32.0,30.20,SSE,154,0.0,3.0,92,0.00,,,0.00,Wunderground v.1.15,2013-02-10 07:33:00,
2013-02-10 02:38:00,34.0,31.9,30.20,SSE,154,0.0,3.0,92,0.00,,,0.00,Wunderground v.1.15,2013-02-10 07:38:00,
2013-02-10 02:43:00,33.8,31.7,30.20,SSE,154,0.0,3.0,92,0.00,,,0.00,Wunderground v.1.15,2013-02-10 07:43:00,
2013-02-10 02:49:00,33.8,31.7,30.20,SSE,154,0.0,3.0,92,0.00,,,0.00,Wunderground v.1.15,2013-02-10 07:49:00,
2013-02-10 02:55:00,33.7,31.6,30.20,SSE,154,0.0,3.0,92,0.00,,,0.00,Wunderground v.1.15,2013-02-10 07:55:00,
2013-02-10 03:01:00,33.7,31.6,30.20,SSE,154,0.0,3.0,92,0.00,,,0.00,Wunderground v.1.15,2013-02-10 08:01:00,
2013-02-10 03:06:00,33.7,31.6,30.20,SSE,154,0.0,3.0,92,0.00,,,0.00,Wunderground v.1.15,2013-02-10 08:06:00,
2013-02-10 03:11:00,33.5,31.4,30.20,SSE,154,0.0,3.0,92,0.00,,,0.00,Wunderground v.1.15,2013-02-10 08:11:00,
2013-02-10 03:16:00,33.5,31.4,30.20,SSE,154,0.0,3.0,92,0.00,,,0.00,Wunderground v.1.15,2013-02-10 08:16:00,
2013-02-10 03:22:00,33.4,31.3,30.20,SSE,154,0.0,3.0,92,0.00,,,0.00,Wunderground v.1.15,2013-02-10 08:22:00,
2013-02-10 03:28:00,33.2,31.1,30.19,SSE,154,0.0,3.0,92,0.00,,,0.00,Wunderground v.1.15,2013-02-10 08:28:00,
2013-02-10 03:34:00,33.2,31.1,30.19,SSE,154,0.0,3.0,92,0.00,,,0.00,Wunderground v.1.15,2013-02-10 08:34:00,
2013-02-10 03:39:00,33.2,31.1,30.19,SSE,154,0.0,3.0,92,0.00,,,0.00,Wunderground v.1.15,2013-02-10 08:39:00,
2013-02-10 03:44:00,33.1,31.3,30.19,SSE,154,0.0,3.0,93,0.00,,,0.00,Wunderground v.1.15,2013-02-10 08:44:00,
2013-02-10 03:50:00,33.2,31.4,30.19,SSE,154,0.0,3.0,93,0.00,,,0.00,Wunderground v.1.15,2013-02-10 08:50:00,
2013-02-10 03:55:00,33.2,31.4,30.19,SSE,154,0.0,3.0,93,0.00,,,0.00,Wunderground v.1.15,2013-02-10 08:55:00,
2013-02-10 04:00:00,33.1,31.3,30.20,SSE,154,0.0,3.0,93,0.00,,,0.00,Wunderground v.1.15,2013-02-10 09:00:00,
2013-02-10 04:06:00,33.1,31.3,30.20,SSE,154,0.0,3.0,93,0.00,,,0.00,Wunderground v.1.15,2013-02-10 09:06:00,
2013-02-10 04:11:00,33.1,31.3,30.20,SSE,154,0.0,3.0,93,0.00,,,0.00,Wunderground v.1.15,2013-02-10 09:11:00,
2013-02-10 04:17:00,33.1,31.3,30.20,SSE,154,0.0,3.0,93,0.00,,,0.00,Wunderground v.1.15,2013-02-10 09:17:00,
2013-02-10 04:22:00,33.1,31.3,30.20,SSE,154,0.0,3.0,93,0.00,,,0.00,Wunderground v.1.15,2013-02-10 09:22:00,
2013-02-10 04:27:00,32.9,31.1,30.20,SSE,154,0.0,3.0,93,0.00,,,0.00,Wunderground v.1.15,2013-02-10 09:27:00,
2013-02-10 04:33:00,32.9,31.1,30.21,SSE,154,0.0,3.0,93,0.00,,,0.00,Wunderground v.1.15,2013-02-10 09:33:00,
2013-02-10 04:38:00,32.9,31.1,30.21,SSE,154,0.0,3.0,93,0.00,,,0.00,Wunderground v.1.15,2013-02-10 09:38:00,
2013-02-10 04:43:00,32.8,31.0,30.22,SSE,154,0.0,3.0,93,0.00,,,0.00,Wunderground v.1.15,2013-02-10 09:43:00,
2013-02-10 04:49:00,32.7,30.9,30.22,SSE,154,0.0,3.0,93,0.00,,,0.00,Wunderground v.1.15,2013-02-10 09:49:00,
2013-02-10 04:55:00,32.7,30.9,30.22,SSE,154,0.0,3.0,93,0.00,,,0.00,Wunderground v.1.15,2013-02-10 09:55:00,
2013-02-10 05:00:00,32.7,30.9,30.22,SSE,154,0.0,3.0,93,0.00,,,0.00,Wunderground v.1.15,2013-02-10 10:00:00,
2013-02-10 05:05:00,32.7,30.9,30.22,SSE,154,0.0,3.0,93,0.00,,,0.00,Wunderground v.1.15,2013-02-10 10:05:00,
2013-02-10 05:10:00,32.7,30.9,30.22,SSE,154,0.0,3.0,93,0.00,,,0.00,Wunderground v.1.15,2013-02-10 10:10:00,
2013-02-10 05:16:00,32.7,30.9,30.22,SSE,154,0.0,3.0,93,0.00,,,0.00,Wunderground v.1.15,2013-02-10 10:16:00,
2013-02-10 05:22:00,32.7,30.9,30.22,SSE,154,0.0,3.0,93,0.00,,,0.00,Wunderground v.1.15,2013-02-10 10:22:00,
2013-02-10 05:27:00,32.7,31.2,30.22,SSE,154,0.0,3.0,94,0.00,,,0.00,Wunderground v.1.15,2013-02-10 10:27:00,
2013-02-10 05:32:00,32.8,31.3,30.22,SSE,154,0.0,3.0,94,0.00,,,0.00,Wunderground v.1.15,2013-02-10 10:32:00,
2013-02-10 05:38:00,32.8,31.3,30.22,SSE,154,0.0,3.0,94,0.00,,,0.00,Wunderground v.1.15,2013-02-10 10:38:00,
2013-02-10 05:43:00,32.8,31.3,30.22,SSE,154,0.0,3.0,94,0.00,,,0.00,Wunderground v.1.15,2013-02-10 10:43:00,
2013-02-10 05:48:00,32.8,31.3,30.22,SSE,154,0.0,3.0,94,0.00,,,0.00,Wunderground v.1.15,2013-02-10 10:48:00,
2013-02-10 05:54:00,32.8,31.3,30.22,SSE,154,0.0,3.0,94,0.00,,,0.00,Wunderground v.1.15,2013-02-10 10:54:00,
2013-02-10 06:00:00,32.8,31.3,30.22,SSE,154,0.0,3.0,94,0.00,,,0.00,Wunderground v.1.15,2013-02-10 11:00:00,
2013-02-10 06:06:00,32.7,31.2,30.22,SSE,154,0.0,3.0,94,0.00,,,0.00,Wunderground v.1.15,2013-02-10 11:06:00,
2013-02-10 06:11:00,32.7,31.2,30.22,SSE,154,0.0,3.0,94,0.00,,,0.00,Wunderground v.1.15,2013-02-10 11:11:00,
2013-02-10 06:17:00,32.7,31.2,30.23,SSE,154,0.0,3.0,94,0.00,,,0.00,Wunderground v.1.15,2013-02-10 11:17:00,
2013-02-10 06:23:00,32.8,31.3,30.23,SSE,154,0.0,3.0,94,0.00,,,0.00,Wunderground v.1.15,2013-02-10 11:23:00,
2013-02-10 06:29:00,32.8,31.3,30.22,SSE,154,0.0,3.0,94,0.00,,,0.00,Wunderground v.1.15,2013-02-10 11:29:00,
2013-02-10 06:35:00,32.8,31.3,30.22,SSE,154,0.0,3.0,94,0.00,,,0.00,Wunderground v.1.15,2013-02-10 11:35:00,
2013-02-10 06:41:00,32.9,31.4,30.22,SSE,154,0.0,3.0,94,0.00,,,0.00,Wunderground v.1.15,2013-02-10 11:41:00,
2013-02-10 06:47:00,32.9,31.4,30.23,SSE,154,0.0,3.0,94,0.00,,,0.00,Wunderground v.1.15,2013-02-10 11:47:00,
2013-02-10 06:53:00,32.9,31.6,30.23,SSE,154,0.0,3.0,95,0.00,,,0.00,Wunderground v.1.15,2013-02-10 11:53:00,
2013-02-10 06:59:00,33.1,31.8,30.24,SSE,154,0.0,3.0,95,0.00,,,0.00,Wunderground v.1.15,2013-02-10 11:59:00,
2013-02-10 07:05:00,33.4,32.1,30.24,SSE,154,0.0,3.0,95,0.00,,,0.00,Wunderground v.1.15,2013-02-10 12:05:00,
2013-02-10 07:10:00,33.7,32.4,30.24,SSE,154,0.0,3.0,95,0.00,,,0.00,Wunderground v.1.15,2013-02-10 12:10:00,
2013-02-10 07:16:00,34.0,32.7,30.23,SSE,154,0.0,3.0,95,0.00,,,0.00,Wunderground v.1.15,2013-02-10 12:16:00,
2013-02-10 07:21:00,34.3,33.3,30.23,SSE,154,0.0,3.0,96,0.00,,,0.00,Wunderground v.1.15,2013-02-10 12:21:00,
2013-02-10 07:27:00,34.6,33.6,30.23,SSE,154,0.0,3.0,96,0.00,,,0.00,Wunderground v.1.15,2013-02-10 12:27:00,
2013-02-10 07:32:00,34.9,33.9,30.24,SSE,154,0.0,3.0,96,0.00,,,0.00,Wunderground v.1.15,2013-02-10 12:32:00,
2013-02-10 07:37:00,35.0,34.0,30.24,SSE,154,0.0,3.0,96,0.00,,,0.00,Wunderground v.1.15,2013-02-10 12:37:00,
2013-02-10 07:43:00,35.5,34.5,30.24,SSE,154,0.0,3.0,96,0.00,,,0.00,Wunderground v.1.15,2013-02-10 12:43:00,
2013-02-10 07:49:00,35.9,34.9,30.24,SSE,154,0.0,3.0,96,0.00,,,0.00,Wunderground v.1.15,2013-02-10 12:49:00,
2013-02-10 07:55:00,36.0,35.0,30.24,SSE,154,0.0,3.0,96,0.00,,,0.00,Wunderground v.1.15,2013-02-10 12:55:00,
2013-02-10 08:01:00,36.5,35.5,30.25,SSE,154,0.0,3.0,96,0.00,,,0.00,Wunderground v.1.15,2013-02-10 13:01:00,
2013-02-10 08:06:00,36.8,35.8,30.25,SSE,154,0.0,3.0,96,0.00,,,0.00,Wunderground v.1.15,2013-02-10 13:06:00,
2013-02-10 08:12:00,37.2,36.2,30.25,SSE,154,0.0,3.0,96,0.00,,,0.00,Wunderground v.1.15,2013-02-10 13:12:00,
2013-02-10 08:17:00,37.5,36.5,30.26,SSE,154,0.0,3.0,96,0.00,,,0.00,Wunderground v.1.15,2013-02-10 13:17:00,
2013-02-10 08:23:00,37.8,36.8,30.26,SSE,154,0.0,3.0,96,0.00,,,0.00,Wunderground v.1.15,2013-02-10 13:23:00,
2013-02-10 08:29:00,38.0,37.0,30.26,SSE,154,0.0,3.0,96,0.00,,,0.00,Wunderground v.1.15,2013-02-10 13:29:00,
2013-02-10 08:35:00,38.3,37.3,30.26,SSE,154,0.0,3.0,96,0.00,,,0.00,Wunderground v.1.15,2013-02-10 13:35:00,
2013-02-10 08:41:00,38.9,37.9,30.26,SSE,154,0.0,3.0,96,0.00,,,0.00,Wunderground v.1.15,2013-02-10 13:41:00,
2013-02-10 08:47:00,39.3,38.3,30.26,SSE,154,0.0,3.0,96,0.00,,,0.00,Wunderground v.1.15,2013-02-10 13:47:00,
2013-02-10 08:52:00,39.9,38.9,30.26,NE,44,0.0,3.0,96,0.00,,,0.00,Wunderground v.1.15,2013-02-10 13:52:00,
2013-02-10 08:57:00,40.3,39.3,30.26,NE,44,0.0,3.0,96,0.00,,,0.00,Wunderground v.1.15,2013-02-10 13:57:00,
2013-02-10 09:03:00,41.1,40.0,30.28,NE,44,0.0,3.0,96,0.00,,,0.00,Wunderground v.1.15,2013-02-10 14:03:00,
2013-02-10 09:08:00,41.6,40.3,30.28,ENE,58,0.0,3.0,95,0.00,,,0.00,Wunderground v.1.15,2013-02-10 14:08:00,
2013-02-10 09:13:00,42.5,41.2,30.28,ENE,66,1.0,3.0,95,0.00,,,0.00,Wunderground v.1.15,2013-02-10 14:13:00,
2013-02-10 09:18:00,43.6,42.0,30.28,East,84,1.0,4.0,94,0.00,,,0.00,Wunderground v.1.15,2013-02-10 14:18:00,
2013-02-10 09:24:00,44.9,42.1,30.28,ENE,64,2.0,3.0,90,0.00,,,0.00,Wunderground v.1.15,2013-02-10 14:24:00,
2013-02-10 09:29:00,46.0,42.3,30.28,NE,51,1.0,3.0,87,0.00,,,0.00,Wunderground v.1.15,2013-02-10 14:29:00,
2013-02-10 09:34:00,47.0,42.4,30.28,ENE,68,1.0,3.0,84,0.00,,,0.00,Wunderground v.1.15,2013-02-10 14:34:00,
2013-02-10 09:40:00,48.0,42.1,30.28,ENE,62,1.0,4.0,80,0.00,,,0.00,Wunderground v.1.15,2013-02-10 14:40:00,
2013-02-10 09:46:00,49.1,42.2,30.28,East,81,2.0,3.0,77,0.00,,,0.00,Wunderground v.1.15,2013-02-10 14:46:00,
2013-02-10 09:51:00,50.1,42.5,30.28,ESE,111,1.0,3.0,75,0.00,,,0.00,Wunderground v.1.15,2013-02-10 14:51:00,
2013-02-10 09:56:00,51.0,41.9,30.28,ESE,119,1.0,3.0,71,0.00,,,0.00,Wunderground v.1.15,2013-02-10 14:56:00,
2013-02-10 10:02:00,52.3,40.1,30.29,ESE,106,2.0,12.0,63,0.00,,,0.00,Wunderground v.1.15,2013-02-10 15:02:00,
2013-02-10 10:07:00,52.9,38.5,30.29,East,85,5.0,12.0,58,0.00,,,0.00,Wunderground v.1.15,2013-02-10 15:07:00,
2013-02-10 10:13:00,53.6,38.3,30.28,ESE,123,5.0,7.0,56,0.00,,,0.00,Wunderground v.1.15,2013-02-10 15:13:00,
2013-02-10 10:18:00,54.1,37.8,30.28,ESE,122,5.0,11.0,54,0.00,,,0.00,Wunderground v.1.15,2013-02-10 15:18:00,
2013-02-10 10:24:00,54.7,38.4,30.28,SE,132,4.0,5.0,54,0.00,,,0.00,Wunderground v.1.15,2013-02-10 15:24:00,
2013-02-10 10:30:00,55.1,38.7,30.28,ESE,105,2.0,8.0,54,0.00,,,0.00,Wunderground v.1.15,2013-02-10 15:30:00,
2013-02-10 10:35:00,55.0,39.1,30.28,ESE,111,3.0,4.0,55,0.00,,,0.00,Wunderground v.1.15,2013-02-10 15:35:00,
2013-02-10 10:40:00,54.8,39.8,30.28,ESE,118,4.0,9.0,57,0.00,,,0.00,Wunderground v.1.15,2013-02-10 15:40:00,
2013-02-10 10:46:00,54.7,40.2,30.28,East,80,3.0,6.0,58,0.00,,,0.00,Wunderground v.1.15,2013-02-10 15:46:00,
2013-02-10 10:52:00,54.2,39.7,30.28,East,96,4.0,6.0,58,0.00,,,0.00,Wunderground v.1.15,2013-02-10 15:52:00,
2013-02-10 10:58:00,53.9,39.9,30.28,ESE,118,5.0,7.0,59,0.00,,,0.00,Wunderground v.1.15,2013-02-10 15:58:00,
2013-02-10 11:03:00,53.6,40.0,30.28,ESE,115,4.0,4.0,60,0.00,,,0.00,Wunderground v.1.15,2013-02-10 16:03:00,
2013-02-10 11:08:00,53.5,39.9,30.28,ENE,72,3.0,6.0,60,0.00,,,0.00,Wunderground v.1.15,2013-02-10 16:08:00,
2013-02-10 11:13:00,53.3,39.8,30.27,ESE,111,4.0,4.0,60,0.00,,,0.00,Wunderground v.1.15,2013-02-10 16:13:00,
2013-02-10 11:18:00,53.2,40.1,30.27,SE,127,5.0,6.0,61,0.00,,,0.00,Wunderground v.1.15,2013-02-10 16:18:00,
2013-02-10 11:23:00,53.2,40.1,30.27,ESE,107,5.0,7.0,61,0.00,,,0.00,Wunderground v.1.15,2013-02-10 16:23:00,
2013-02-10 11:28:00,53.3,39.8,30.27,East,90,5.0,7.0,60,0.00,,,0.00,Wunderground v.1.15,2013-02-10 16:28:00,
2013-02-10 11:34:00,53.8,39.4,30.27,ESE,107,6.0,9.0,58,0.00,,,0.00,Wunderground v.1.15,2013-02-10 16:34:00,
2013-02-10 11:40:00,54.4,39.9,30.27,East,92,6.0,9.0,58,0.00,,,0.00,Wunderground v.1.15,2013-02-10 16:40:00,
2013-02-10 11:46:00,55.0,40.0,30.27,East,97,5.0,14.0,57,0.00,,,0.00,Wunderground v.1.15,2013-02-10 16:46:00,
2013-02-10 11:52:00,55.7,39.8,30.27,ENE,61,5.0,5.0,55,0.00,,,0.00,Wunderground v.1.15,2013-02-10 16:52:00,
2013-02-10 11:57:00,56.2,39.8,30.27,ESE,123,5.0,9.0,54,0.00,,,0.00,Wunderground v.1.15,2013-02-10 16:57:00,
2013-02-10 12:02:00,56.7,40.2,30.28,SE,138,6.0,6.0,54,0.00,,,0.00,Wunderground v.1.15,2013-02-10 17:02:00,
2013-02-10 12:07:00,57.0,40.0,30.28,East,100,5.0,12.0,53,0.00,,,0.00,Wunderground v.1.15,2013-02-10 17:07:00,
2013-02-10 12:13:00,57.3,39.8,30.26,East,88,6.0,6.0,52,0.00,,,0.00,Wunderground v.1.15,2013-02-10 17:13:00,
2013-02-10 12:18:00,57.8,40.3,30.26,East,99,5.0,6.0,52,0.00,,,0.00,Wunderground v.1.15,2013-02-10 17:18:00,
2013-02-10 12:24:00,58.6,40.0,30.26,ESE,113,4.0,8.0,50,0.00,,,0.00,Wunderground v.1.15,2013-02-10 17:24:00,
2013-02-10 12:30:00,58.7,40.6,30.25,SE,145,5.0,15.0,51,0.00,,,0.00,Wunderground v.1.15,2013-02-10 17:30:00,
2013-02-10 12:35:00,58.9,40.8,30.25,ESE,112,5.0,11.0,51,0.00,,,0.00,Wunderground v.1.15,2013-02-10 17:35:00,
2013-02-10 12:40:00,59.0,40.9,30.25,NE,37,4.0,11.0,51,0.00,,,0.00,Wunderground v.1.15,2013-02-10 17:40:00,
2013-02-10 12:46:00,59.2,41.6,30.25,East,82,5.0,9.0,52,0.00,,,0.00,Wunderground v.1.15,2013-02-10 17:46:00,
2013-02-10 12:52:00,59.3,41.2,30.25,SE,132,6.0,6.0,51,0.00,,,0.00,Wunderground v.1.15,2013-02-10 17:52:00,
2013-02-10 12:58:00,59.6,41.9,30.25,East,96,5.0,11.0,52,0.00,,,0.00,Wunderground v.1.15,2013-02-10 17:58:00,
2013-02-10 13:04:00,59.9,42.2,30.25,South,179,5.0,6.0,52,0.00,,,0.00,Wunderground v.1.15,2013-02-10 18:04:00,
2013-02-10 13:09:00,60.1,43.9,30.25,ESE,111,5.0,10.0,55,0.00,,,0.00,Wunderground v.1.15,2013-02-10 18:09:00,
2013-02-10 13:15:00,59.9,41.7,30.23,East,84,8.0,14.0,51,0.00,,,0.00,Wunderground v.1.15,2013-02-10 18:15:00,
2013-02-10 13:21:00,59.8,42.1,30.23,ESE,103,8.0,14.0,52,0.00,,,0.00,Wunderground v.1.15,2013-02-10 18:21:00,
2013-02-10 13:26:00,59.6,41.9,30.23,ESE,109,7.0,12.0,52,0.00,,,0.00,Wunderground v.1.15,2013-02-10 18:26:00,
2013-02-10 13:31:00,59.8,42.6,30.22,ESE,113,7.0,12.0,53,0.00,,,0.00,Wunderground v.1.15,2013-02-10 18:31:00,
2013-02-10 13:37:00,59.9,42.7,30.22,SE,134,5.0,7.0,53,0.00,,,0.00,Wunderground v.1.15,2013-02-10 18:37:00,
2013-02-10 13:43:00,60.1,42.4,30.21,SE,126,6.0,13.0,52,0.00,,,0.00,Wunderground v.1.15,2013-02-10 18:43:00,
2013-02-10 13:49:00,60.2,42.5,30.21,ESE,102,7.0,13.0,52,0.00,,,0.00,Wunderground v.1.15,2013-02-10 18:49:00,
2013-02-10 13:55:00,60.1,42.9,30.21,ESE,123,6.0,9.0,53,0.00,,,0.00,Wunderground v.1.15,2013-02-10 18:55:00,
2013-02-10 14:01:00,60.1,42.9,30.21,ESE,113,5.0,9.0,53,0.00,,,0.00,Wunderground v.1.15,2013-02-10 19:01:00,
2013-02-10 14:07:00,60.7,43.0,30.21,ESE,104,4.0,7.0,52,0.00,,,0.00,Wunderground v.1.15,2013-02-10 19:07:00,
2013-02-10 14:13:00,60.9,43.1,30.22,SE,142,4.0,5.0,52,0.00,,,0.00,Wunderground v.1.15,2013-02-10 19:13:00,
2013-02-10 14:18:00,60.4,43.2,30.22,ESE,111,3.0,6.0,53,0.00,,,0.00,Wunderground v.1.15,2013-02-10 19:18:00,
2013-02-10 14:23:00,59.5,43.3,30.22,ESE,115,2.0,3.0,55,0.00,,,0.00,Wunderground v.1.15,2013-02-10 19:23:00,
2013-02-10 14:28:00,59.5,43.3,30.21,ESE,114,4.0,8.0,55,0.00,,,0.00,Wunderground v.1.15,2013-02-10 19:28:00,
2013-02-10 14:34:00,59.2,43.0,30.21,ESE,114,7.0,9.0,55,0.00,,,0.00,Wunderground v.1.15,2013-02-10 19:34:00,
2013-02-10 14:40:00,58.7,43.5,30.21,East,90,6.0,10.0,57,0.00,,,0.00,Wunderground v.1.15,2013-02-10 19:40:00,
2013-02-10 14:46:00,58.4,43.7,30.19,NE,49,5.0,10.0,58,0.00,,,0.00,Wunderground v.1.15,2013-02-10 19:46:00,
2013-02-10 14:51:00,58.6,43.9,30.19,East,96,4.0,10.0,58,0.00,,,0.00,Wunderground v.1.15,2013-02-10 19:51:00,
2013-02-10 14:56:00,58.9,44.1,30.19,SE,130,4.0,8.0,58,0.00,,,0.00,Wunderground v.1.15,2013-02-10 19:56:00,
2013-02-10 15:01:00,59.3,44.5,30.18,ESE,123,4.0,8.0,58,0.00,,,0.00,Wunderground v.1.15,2013-02-10 20:01:00,
2013-02-10 15:07:00,59.6,44.3,30.18,ESE,104,5.0,14.0,57,0.00,,,0.00,Wunderground v.1.15,2013-02-10 20:07:00,
2013-02-10 15:13:00,59.8,44.5,30.17,East,98,5.0,5.0,57,0.00,,,0.00,Wunderground v.1.15,2013-02-10 20:13:00,
2013-02-10 15:18:00,59.8,44.5,30.17,SE,142,4.0,12.0,57,0.00,,,0.00,Wunderground v.1.15,2013-02-10 20:18:00,
2013-02-10 15:23:00,59.3,44.5,30.17,SSE,148,6.0,6.0,58,0.00,,,0.00,Wunderground v.1.15,2013-02-10 20:23:00,
2013-02-10 15:28:00,59.0,44.2,30.17,ESE,115,6.0,11.0,58,0.00,,,0.00,Wunderground v.1.15,2013-02-10 20:28:00,
2013-02-10 15:33:00,58.6,44.8,30.17,East,98,5.0,9.0,60,0.00,,,0.00,Wunderground v.1.15,2013-02-10 20:33:00,
2013-02-10 15:38:00,58.4,44.6,30.17,East,83,4.0,9.0,60,0.00,,,0.00,Wunderground v.1.15,2013-02-10 20:38:00,
2013-02-10 15:43:00,58.3,44.9,30.17,East,79,4.0,6.0,61,0.00,,,0.00,Wunderground v.1.15,2013-02-10 20:43:00,
2013-02-10 15:48:00,58.0,44.6,30.17,South,188,4.0,6.0,61,0.00,,,0.00,Wunderground v.1.15,2013-02-10 20:48:00,
2013-02-10 15:53:00,57.0,44.5,30.17,ESE,104,4.0,5.0,63,0.00,,,0.00,Wunderground v.1.15,2013-02-10 20:53:00,
2013-02-10 15:59:00,56.3,44.7,30.17,ENE,77,4.0,7.0,65,0.00,,,0.00,Wunderground v.1.15,2013-02-10 20:59:00,
2013-02-10 16:04:00,55.9,44.7,30.17,East,86,4.0,6.0,66,0.00,,,0.00,Wunderground v.1.15,2013-02-10 21:04:00,
2013-02-10 16:09:00,55.3,44.5,30.17,ESE,112,4.0,10.0,67,0.00,,,0.00,Wunderground v.1.15,2013-02-10 21:09:00,
2013-02-10 16:14:00,54.8,44.8,30.17,ESE,119,4.0,12.0,69,0.00,,,0.00,Wunderground v.1.15,2013-02-10 21:14:00,
2013-02-10 16:20:00,54.5,44.5,30.17,ENE,74,5.0,12.0,69,0.00,,,0.00,Wunderground v.1.15,2013-02-10 21:20:00,
2013-02-10 16:26:00,54.4,45.2,30.17,East,94,5.0,10.0,71,0.00,,,0.00,Wunderground v.1.15,2013-02-10 21:26:00,
2013-02-10 16:31:00,54.2,45.4,30.17,ESE,105,3.0,10.0,72,0.00,,,0.00,Wunderground v.1.15,2013-02-10 21:31:00,
2013-02-10 16:37:00,54.1,45.3,30.17,East,95,1.0,10.0,72,0.00,,,0.00,Wunderground v.1.15,2013-02-10 21:37:00,
2013-02-10 16:42:00,53.9,45.4,30.17,ESE,105,3.0,7.0,73,0.00,,,0.00,Wunderground v.1.15,2013-02-10 21:42:00,
2013-02-10 16:48:00,53.8,45.3,30.16,SE,127,5.0,7.0,73,0.00,,,0.00,Wunderground v.1.15,2013-02-10 21:48:00,
2013-02-10 16:53:00,53.6,45.5,30.16,ESE,117,5.0,6.0,74,0.00,,,0.00,Wunderground v.1.15,2013-02-10 21:53:00,
2013-02-10 16:58:00,53.6,45.9,30.16,ESE,113,4.0,10.0,75,0.00,,,0.00,Wunderground v.1.15,2013-02-10 21:58:00,
2013-02-10 17:03:00,53.6,45.9,30.16,East,92,4.0,4.0,75,0.00,,,0.00,Wunderground v.1.15,2013-02-10 22:03:00,
2013-02-10 17:08:00,53.6,45.9,30.16,ESE,113,4.0,11.0,75,0.00,,,0.00,Wunderground v.1.15,2013-02-10 22:08:00,
2013-02-10 17:14:00,53.6,45.9,30.15,SE,128,5.0,6.0,75,0.00,,,0.00,Wunderground v.1.15,2013-02-10 22:14:00,
2013-02-10 17:20:00,53.5,46.1,30.15,ESE,117,4.0,6.0,76,0.00,,,0.00,Wunderground v.1.15,2013-02-10 22:20:00,
2013-02-10 17:25:00,53.3,46.3,30.15,ESE,111,5.0,6.0,77,0.00,,,0.00,Wunderground v.1.15,2013-02-10 22:25:00,
2013-02-10 17:30:00,53.2,46.2,30.15,ESE,115,6.0,6.0,77,0.00,,,0.00,Wunderground v.1.15,2013-02-10 22:30:00,
2013-02-10 17:36:00,53.2,46.5,30.15,SSE,168,5.0,5.0,78,0.00,,,0.00,Wunderground v.1.15,2013-02-10 22:36:00,
2013-02-10 17:42:00,53.1,46.8,30.15,ESE,111,4.0,6.0,79,0.00,,,0.00,Wunderground v.1.15,2013-02-10 22:42:00,
2013-02-10 17:48:00,52.9,46.6,30.15,ESE,106,4.0,6.0,79,0.00,,,0.00,Wunderground v.1.15,2013-02-10 22:48:00,
2013-02-10 17:54:00,52.9,46.6,30.15,SE,132,3.0,3.0,79,0.00,,,0.00,Wunderground v.1.15,2013-02-10 22:54:00,
2013-02-10 18:00:00,52.8,46.8,30.14,ESE,110,2.0,7.0,80,0.00,,,0.00,Wunderground v.1.15,2013-02-10 23:00:00,
2013-02-10 18:05:00,52.8,46.8,30.14,East,99,3.0,5.0,80,0.00,,,0.00,Wunderground v.1.15,2013-02-10 23:05:00,
2013-02-10 18:10:00,52.8,46.8,30.14,ESE,113,3.0,6.0,80,0.00,,,0.00,Wunderground v.1.15,2013-02-10 23:10:00,
2013-02-10 18:16:00,52.6,46.9,30.13,SE,140,4.0,10.0,81,0.00,,,0.00,Wunderground v.1.15,2013-02-10 23:16:00,
2013-02-10 18:22:00,52.6,47.3,30.13,ESE,112,3.0,3.0,82,0.00,,,0.00,Wunderground v.1.15,2013-02-10 23:22:00,
2013-02-10 18:28:00,52.6,47.3,30.14,SE,128,3.0,5.0,82,0.00,,,0.00,Wunderground v.1.15,2013-02-10 23:28:00,
2013-02-10 18:33:00,52.6,47.3,30.14,SE,124,2.0,5.0,82,0.00,,,0.00,Wunderground v.1.15,2013-02-10 23:33:00,
2013-02-10 18:38:00,52.8,47.8,30.14,ESE,114,2.0,6.0,83,0.00,,,0.00,Wunderground v.1.15,2013-02-10 23:38:00,
2013-02-10 18:44:00,52.8,47.8,30.13,SE,134,3.0,12.0,83,0.00,,,0.00,Wunderground v.1.15,2013-02-10 23:44:00,
2013-02-10 18:49:00,52.8,47.8,30.13,ESE,105,4.0,12.0,83,0.00,,,0.00,Wunderground v.1.15,2013-02-10 23:49:00,
2013-02-10 18:54:00,52.8,48.1,30.13,ESE,115,5.0,5.0,84,0.00,,,0.00,Wunderground v.1.15,2013-02-10 23:54:00,
2013-02-10 19:00:00,52.8,48.1,30.12,SE,133,3.0,7.0,84,0.00,,,0.00,Wunderground v.1.15,2013-02-11 00:00:00,
2013-02-10 19:06:00,52.8,48.4,30.12,ESE,112,3.0,10.0,85,0.00,,,0.00,Wunderground v.1.15,2013-02-11 00:06:00,
2013-02-10 19:11:00,52.8,48.4,30.12,ESE,105,3.0,10.0,85,0.00,,,0.00,Wunderground v.1.15,2013-02-11 00:11:00,
2013-02-10 19:17:00,52.9,48.5,30.12,East,94,3.0,4.0,85,0.00,,,0.00,Wunderground v.1.15,2013-02-11 00:17:00,
2013-02-10 19:23:00,52.9,48.5,30.12,ESE,107,2.0,3.0,85,0.00,,,0.00,Wunderground v.1.15,2013-02-11 00:23:00,
2013-02-10 19:29:00,52.9,48.5,30.11,ESE,114,3.0,5.0,85,0.00,,,0.00,Wunderground v.1.15,2013-02-11 00:29:00,
2013-02-10 19:35:00,53.2,48.8,30.11,SE,127,3.0,9.0,85,0.00,,,0.00,Wunderground v.1.15,2013-02-11 00:35:00,
2013-02-10 19:41:00,53.3,48.9,30.11,SE,129,2.0,9.0,85,0.00,,,0.00,Wunderground v.1.15,2013-02-11 00:41:00,
2013-02-10 19:47:00,53.3,48.9,30.12,East,98,2.0,5.0,85,0.00,,,0.00,Wunderground v.1.15,2013-02-11 00:47:00,
2013-02-10 19:53:00,53.5,49.1,30.12,East,100,1.0,3.0,85,0.00,,,0.00,Wunderground v.1.15,2013-02-11 00:53:00,
2013-02-10 19:58:00,53.5,49.1,30.11,SE,134,1.0,3.0,85,0.00,,,0.00,Wunderground v.1.15,2013-02-11 00:58:00,
2013-02-10 20:03:00,53.5,49.4,30.11,SE,134,2.0,3.0,86,0.00,,,0.00,Wunderground v.1.15,2013-02-11 01:03:00,
2013-02-10 20:08:00,53.5,49.4,30.11,East,96,2.0,4.0,86,0.00,,,0.00,Wunderground v.1.15,2013-02-11 01:08:00,
2013-02-10 20:13:00,53.5,49.4,30.11,East,96,1.0,3.0,86,0.00,,,0.00,Wunderground v.1.15,2013-02-11 01:13:00,
2013-02-10 20:19:00,53.5,49.4,30.11,ESE,117,0.0,3.0,86,0.00,,,0.00,Wunderground v.1.15,2013-02-11 01:19:00,
2013-02-10 20:25:00,53.5,49.4,30.11,ESE,117,0.0,3.0,86,0.00,,,0.00,Wunderground v.1.15,2013-02-11 01:25:00,
2013-02-10 20:30:00,53.3,49.2,30.09,ESE,106,1.0,3.0,86,0.00,,,0.00,Wunderground v.1.15,2013-02-11 01:30:00,
2013-02-10 20:35:00,53.2,49.1,30.09,ESE,109,1.0,3.0,86,0.00,,,0.00,Wunderground v.1.15,2013-02-11 01:35:00,
2013-02-10 20:41:00,53.1,49.0,30.09,SE,134,0.0,3.0,86,0.00,,,0.00,Wunderground v.1.15,2013-02-11 01:41:00,
2013-02-10 20:46:00,53.1,49.6,30.09,SE,134,0.0,3.0,88,0.00,,,0.00,Wunderground v.1.15,2013-02-11 01:46:00,
2013-02-10 20:51:00,53.1,49.6,30.09,SE,134,1.0,3.0,88,0.00,,,0.00,Wunderground v.1.15,2013-02-11 01:51:00,
2013-02-10 20:57:00,53.1,49.6,30.09,SE,134,0.0,3.0,88,0.00,,,0.00,Wunderground v.1.15,2013-02-11 01:57:00,
2013-02-10 21:03:00,53.1,49.6,30.09,SE,134,0.0,3.0,88,0.00,,,0.00,Wunderground v.1.15,2013-02-11 02:03:00,
2013-02-10 21:09:00,53.3,50.1,30.09,SE,136,1.0,4.0,89,0.00,,,0.00,Wunderground v.1.15,2013-02-11 02:09:00,
2013-02-10 21:14:00,53.9,50.7,30.08,South,174,2.0,6.0,89,0.00,,,0.00,Wunderground v.1.15,2013-02-11 02:14:00,
2013-02-10 21:20:00,55.0,51.8,30.08,SSE,159,3.0,6.0,89,0.00,,,0.00,Wunderground v.1.15,2013-02-11 02:20:00,
2013-02-10 21:26:00,55.7,52.2,30.08,SSE,155,2.0,5.0,88,0.00,,,0.00,Wunderground v.1.15,2013-02-11 02:26:00,
2013-02-10 21:32:00,56.0,51.9,30.08,SE,146,2.0,2.0,86,0.00,,,0.00,Wunderground v.1.15,2013-02-11 02:32:00,
2013-02-10 21:38:00,56.5,52.4,30.08,SSE,151,2.0,4.0,86,0.00,,,0.00,Wunderground v.1.15,2013-02-11 02:38:00,
2013-02-10 21:44:00,56.7,52.2,30.08,SSE,149,2.0,3.0,85,0.00,,,0.00,Wunderground v.1.15,2013-02-11 02:44:00,
2013-02-10 21:50:00,57.3,52.5,30.08,SE,140,2.0,7.0,84,0.00,,,0.00,Wunderground v.1.15,2013-02-11 02:50:00,
2013-02-10 21:55:00,57.8,52.7,30.08,SE,146,2.0,3.0,83,0.00,,,0.00,Wunderground v.1.15,2013-02-11 02:55:00,
2013-02-10 22:01:00,58.1,53.0,30.09,SE,144,2.0,5.0,83,0.00,,,0.00,Wunderground v.1.15,2013-02-11 03:01:00,
2013-02-10 22:06:00,58.4,52.9,30.09,SE,144,1.0,3.0,82,0.00,,,0.00,Wunderground v.1.15,2013-02-11 03:06:00,
2013-02-10 22:11:00,58.6,53.1,30.09,SE,144,1.0,3.0,82,0.00,,,0.00,Wunderground v.1.15,2013-02-11 03:11:00,
2013-02-10 22:17:00,58.7,53.2,30.10,SSE,167,1.0,4.0,82,0.00,,,0.00,Wunderground v.1.15,2013-02-11 03:17:00,
2013-02-10 22:23:00,58.9,53.1,30.10,South,171,1.0,3.0,81,0.00,,,0.00,Wunderground v.1.15,2013-02-11 03:23:00,
2013-02-10 22:28:00,59.0,53.2,30.09,South,171,1.0,3.0,81,0.00,,,0.00,Wunderground v.1.15,2013-02-11 03:28:00,
2013-02-10 22:33:00,59.0,53.2,30.09,South,171,1.0,3.0,81,0.00,,,0.00,Wunderground v.1.15,2013-02-11 03:33:00,
2013-02-10 22:39:00,59.0,53.2,30.09,South,171,0.0,3.0,81,0.00,,,0.00,Wunderground v.1.15,2013-02-11 03:39:00,
2013-02-10 22:45:00,59.2,53.4,30.09,South,171,0.0,3.0,81,0.00,,,0.00,Wunderground v.1.15,2013-02-11 03:45:00,
2013-02-10 22:50:00,59.2,53.4,30.09,South,171,0.0,3.0,81,0.00,,,0.00,Wunderground v.1.15,2013-02-11 03:50:00,
2013-02-10 22:55:00,59.2,53.4,30.09,South,170,1.0,3.0,81,0.00,,,0.00,Wunderground v.1.15,2013-02-11 03:55:00,
2013-02-10 23:01:00,59.2,53.4,30.09,South,170,1.0,3.0,81,0.00,,,0.00,Wunderground v.1.15,2013-02-11 04:01:00,
2013-02-10 23:07:00,59.2,53.7,30.09,South,170,0.0,3.0,82,0.00,,,0.00,Wunderground v.1.15,2013-02-11 04:07:00,
2013-02-10 23:13:00,58.9,53.4,30.11,South,170,0.0,3.0,82,0.00,,,0.00,Wunderground v.1.15,2013-02-11 04:13:00,
2013-02-10 23:18:00,58.7,53.5,30.11,South,170,0.0,3.0,83,0.00,,,0.00,Wunderground v.1.15,2013-02-11 04:18:00,
2013-02-10 23:24:00,58.6,53.5,30.11,South,170,0.0,3.0,83,0.00,,,0.00,Wunderground v.1.15,2013-02-11 04:24:00,
2013-02-10 23:30:00,58.3,53.5,30.10,South,170,0.0,3.0,84,0.00,,,0.00,Wunderground v.1.15,2013-02-11 04:30:00,
2013-02-10 23:36:00,58.1,53.3,30.10,South,170,0.0,3.0,84,0.00,,,0.00,Wunderground v.1.15,2013-02-11 04:36:00,
2013-02-10 23:42:00,57.8,53.0,30.10,South,170,0.0,3.0,84,0.00,,,0.00,Wunderground v.1.15,2013-02-11 04:42:00,
2013-02-10 23:47:00,57.6,53.1,30.10,South,170,0.0,3.0,85,0.00,,,0.00,Wunderground v.1.15,2013-02-11 04:47:00,
2013-02-10 23:52:00,57.5,53.0,30.10,South,170,0.0,3.0,85,0.00,,,0.00,Wunderground v.1.15,2013-02-11 04:52:00,
2013-02-10 23:58:00,57.3,52.8,30.11,South,170,0.0,3.0,85,0.00,,,0.00,Wunderground v.1.15,2013-02-11 04:58:00,